Location: Untermarchtal
(48.2403°N, 9.6117°E)
Time: 03:42:10
(UTC+02:00)

ISS - Pass Details

Date: 04 October 2020
Orbit: 418 x 420 km, 51.6° (Epoch: 20 October)

Event Time Altitude Azimuth Distance (km) Brightness Sun altitude
Rises 20:19:45 0° 290° (WNW) 2,369 1.8 -15.1°
Reaches altitude 10° 20:21:56 10° 282° (WNW) 1,503 0.5 -15.5°
Maximum altitude 20:25:03 36° 214° (SW) 684 -2.5 -16.0°
Enters shadow 20:26:45 21° 161° (SSE) 994 -2.2 -16.2°
